Flight Track Log - Related Links

Times and Time Zones

All times are in EDT time to prevent confusion due to time zone crossing. See the CTL16 flight status page for this flight to view local times or setup timezone preferences in your user account.

Time Position Orientation Groundspeed Altitude Reporting Facility
EDT Latitude Longitude Course Direction KTS MPH feet Rate Location/Type
Tue 20:26:52 39.3667 -84.5500 322° Northwest 110 127 1,300  Level Cincinnati TRACON
Tue 20:27:22 39.3833 -84.5667 322° Northwest 121 139 1,900 818 Climbing Cincinnati TRACON
Tue 20:28:20 39.4061 -84.5317 50° Northeast 176 203 2,500 578 Climbing Indianapolis Center
Tue 20:28:45 39.4200 -84.5108 49° Northeast 174 200 2,700 492 Climbing Indianapolis Center
Tue 20:29:21 39.4367 -84.4864 49° Northeast 166 191 3,000 600 Climbing Indianapolis Center
Tue 20:29:45 39.4511 -84.4636 51° Northeast 178 205 3,300 492 Climbing Indianapolis Center
Tue 20:30:22 39.4692 -84.4375 48° Northeast 172 198 3,500 436 Climbing Indianapolis Center
Tue 20:30:40 39.4819 -84.4217 44° Northeast 176 203 3,700 492 Climbing Indianapolis Center
Tue 20:31:23 39.5033 -84.3911 48° Northeast 174 200 4,000 300 Climbing Indianapolis Center
Tue 20:31:40 39.5172 -84.3750 42° Northeast 179 206 4,000  Level Indianapolis Center
Tue 20:32:24 39.5408 -84.3428 46° Northeast 181 208 4,000  Level Indianapolis Center
Tue 20:33:26 39.5808 -84.2947 43° Northeast 188 216 4,000 50 Level Indianapolis Center
Tue 20:34:24 39.6217 -84.2456 43° Northeast 193 222 4,100 49 Climbing Indianapolis Center
Tue 20:35:28 39.6594 -84.1981 44° Northeast 192 221 4,100 -48 Level Indianapolis Center
Tue 20:36:29 39.6981 -84.1467 46° Northeast 194 223 4,000 -49 Descending Indianapolis Center
Tue 20:37:30 39.7367 -84.0942 46° Northeast 197 227 4,000  Level Indianapolis Center
Tue 20:38:31 39.7750 -84.0433 46° Northeast 196 226 4,000  Level Indianapolis Center
Tue 20:39:32 39.8122 -83.9922 47° Northeast 194 223 4,000 49 Level Indianapolis Center
Tue 20:40:34 39.8481 -83.9414 47° Northeast 191 220 4,100  Climbing Indianapolis Center
Tue 20:41:35 39.8889 -83.8814 48° Northeast 192 221 4,000 189 Descending Indianapolis Center
Tue 20:42:41 39.9283 -83.8319 44° Northeast 179 206 4,500 443 Climbing Indianapolis Center
Tue 20:43:37 39.9564 -83.7936 46° Northeast 184 212 4,900 256 Climbing Indianapolis Center
Tue 20:44:38 39.9925 -83.7447 46° Northeast 184 212 5,000 49 Climbing Indianapolis Center
Tue 20:45:39 40.0294 -83.6928 47° Northeast 188 216 5,000  Level Indianapolis Center
Tue 20:46:41 40.0697 -83.6422 44° Northeast 194 223 5,000  Level Indianapolis Center
Tue 20:47:44 40.1128 -83.5744 50° Northeast 202 232 5,000  Level Indianapolis Center
Tue 20:48:43 40.1467 -83.5306 45° Northeast 204 235 5,000 50 Level Indianapolis Center
Tue 20:49:44 40.1869 -83.4783 45° Northeast 202 232 5,100  Climbing Indianapolis Center
Tue 20:50:45 40.2322 -83.4144 47° Northeast 204 235 5,000  Descending Indianapolis Center
Tue 20:51:04 40.2450 -83.3969 46° Northeast 201 231 5,100  Climbing Indianapolis Center
Tue 20:51:46 40.2706 -83.3603 48° Northeast 201 231 5,000 -58 Descending Indianapolis Center
Tue 20:52:47 40.3072 -83.3061 48° Northeast 198 228 5,000  Level Indianapolis Center
Tue 20:53:48 40.3447 -83.2522 48° Northeast 198 228 5,000  Level Indianapolis Center
Tue 20:54:49 40.3850 -83.1986 45° Northeast 203 234 5,000 -49 Level Indianapolis Center
Tue 20:55:51 40.4219 -83.1444 48° Northeast 198 228 4,900  Descending Indianapolis Center
Tue 20:56:52 40.4600 -83.0922 46° Northeast 197 227 5,000 49 Climbing Indianapolis Center
Tue 20:57:53 40.4961 -83.0381 49° Northeast 196 226 5,000  Level Indianapolis Center
Tue 20:58:54 40.5333 -82.9897 45° Northeast 193 222 5,000  Level Indianapolis Center
Tue 20:59:55 40.5722 -82.9406 44° Northeast 192 221 5,000 -49 Level Indianapolis Center
Tue 21:00:56 40.6094 -82.8897 46° Northeast 192 221 4,900  Descending Indianapolis Center
Tue 21:01:57 40.6392 -82.8289 57° Northeast 195 224 5,000 49 Climbing Indianapolis Center
Tue 21:02:58 40.6675 -82.7669 59° Northeast 196 226 5,000  Level Indianapolis Center
Tue 21:03:59 40.6964 -82.7058 58° Northeast 195 224 5,000  Level Indianapolis Center
Tue 21:05:00 40.7242 -82.6439 59° Northeast 194 223 5,000  Level Indianapolis Center
Tue 21:06:01 40.7539 -82.5819 58° Northeast 197 227 5,000  Level Indianapolis Center

Login

Don't have an account? Register now (free) for customized features, flight alerts, and more!